date,batt_volt,AirTemp_C,Solar_kW,RH,Manual_BP,StationID,WS_ms,PTemp,WS_15min_max,Prog_Sig,Solar_Raw,Bar_mbar,Solar_MJ,Max_WS_2min,Pressure_Raw,Rain_mm,WD_15min_ave,Max_AirTemp_1min,WindDir,WS_15min_med,WS_15min_ave,Elevation_Correction
2018-09-01T00:02:08Z,12.88964,14.97629,0.0,84.9018,0,1156,1.0192,18.55952,1.3524,43690,0.0,1028.151,0.0,1.215,1026.351,0,106.409533114,15.01,85.5653,0.9604,0.918648500592,1.80078
2018-09-01T00:17:09Z,12.89515,15.14555,0.0,84.15705,0,1156,1.7444,18.32682,2.058,43690,0.0,1028.151,0.0,1.784,1026.351,0,76.1098071355,15.15,80.15738,1.5092,1.48438106213,1.80078
2018-09-01T00:32:09Z,12.89515,15.34867,0.0,83.71698,0,1156,1.9208,18.22515,2.4892,43690,0.0,1028.151,0.0,2.489,1026.351,0,75.1581592983,15.38,74.94175,1.5288,1.53088757396,1.80078
2018-09-01T00:47:09Z,12.89515,16.16112,0.0,77.31887,0,1156,2.5676,18.2003,2.7636,43690,0.0,1028.151,0.0,2.764,1026.351,0,75.8479844379,16.16,63.54906,1.96,2.02575857988,1.80078
2018-09-01T01:02:09Z,12.89515,16.43194,0.0,75.18617,0,1156,2.254,18.30197,2.9596,43690,0.0,1028.558,0.0,2.96,1026.757,0,79.2162074022,16.5,70.75963,2.254,2.2758035503,1.80078
2018-09-01T01:17:09Z,12.89515,16.19498,0.0,76.23559,0,1156,1.8424,18.32682,2.9596,43690,0.0,1028.558,0.0,2.96,1026.757,0,76.5970437619,16.33,68.78874,2.2148,2.2306887574,1.80078
2018-09-01T01:32:11Z,12.89515,16.16112,0.0,76.74338,0,1156,2.3716,18.30197,2.6656,43690,0.0,1028.558,0.0,2.411,1026.757,0,88.4802600969,16.16,90.97323,1.8228,1.84437159763,1.80078
2018-09-01T01:47:10Z,12.88413,15.92416,0.0,78.26674,0,1156,2.2148,18.27711,3.1948,43690,0.0,1028.558,0.0,2.372,1026.757,0,78.4143864845,15.96,56.29044,1.9796,2.01740828402,1.80078
2018-09-01T02:02:11Z,12.88964,15.38252,0.0,81.11034,0,1156,1.9992,18.07152,2.9988,43690,0.0,1028.395,0.0,2.215,1026.594,0,99.6738267304,15.38,84.45969,1.3916,1.5167384568,1.80078
2018-09-01T02:17:12Z,12.89515,15.38252,0.0,81.24575,0,1156,1.274,17.79138,2.4108,43690,0.0,1028.395,0.0,2.411,1026.594,0,87.6688796377,15.45,89.3869,1.8032,1.77745325444,1.80078
2018-09-01T02:32:12Z,12.89529,15.21445,0.0,82.36466,0,1156,2.058,17.66486,2.7048,43690,0.0,1028.395,0.0,2.685,1026.594,0,77.430298116,15.25,60.73826,1.9208,1.96626272189,1.80078
2018-09-01T02:47:14Z,12.89723,15.39079,0.0,82.34132,0,1156,2.1952,17.58804,3.7044,43690,0.0,1028.395,0.0,3.704,1026.594,0,79.6274650506,15.42,78.55877,2.0776,2.12851360947,1.80078
2018-09-01T03:02:14Z,12.89731,15.52859,0.0,81.49836,0,1156,1.6072,17.58804,2.8616,43690,0.0,1028.578,0.0,2.607,1026.777,0,89.1345021202,15.66,101.9529,1.7444,1.81178224852,1.80078
2018-09-01T03:17:14Z,12.89118,15.79358,0.0,80.20327,0,1156,1.6072,17.74167,3.1948,43690,0.0,1028.578,0.0,2.313,1026.777,0,99.5622967856,15.93,100.2355,1.6268,1.6736544355,1.80078
2018-09-01T03:32:16Z,12.88981,15.85699,0.0,80.16325,0,1156,3.1556,17.86819,3.1556,43690,0.0,1028.578,0.0,2.92,1026.777,0,95.9215218871,15.89,76.52882,1.764,1.80215621302,1.80078
2018-09-01T03:47:13Z,12.88416,15.72107,0.0,80.43333,0,1156,1.7248,17.9179,3.4888,43690,0.0,1028.578,0.0,2.646,1026.777,0,98.4609342207,15.86,144.3795,1.8032,1.77018332976,1.80078
2018-09-01T04:02:15Z,12.88413,15.82262,0.0,80.46718,0,1156,1.2152,17.9179,2.5284,43690,0.0,1028.152,0.0,2.019,1026.351,0,108.45008045,15.86,127.9154,1.4896,1.49644260118,1.80078
2018-09-01T04:17:16Z,12.88964,15.82262,0.0,80.36562,0,1156,1.5092,17.76652,2.4696,43690,0.0,1028.152,0.0,1.98,1026.351,0,120.759915997,15.96,108.1585,1.1172,1.10374673728,1.80078
2018-09-01T04:32:16Z,12.89001,15.28098,0.0,82.63373,0,1156,1.8032,17.66486,2.0188,43690,0.0,1028.152,0.0,2.019,1026.351,0,111.69790853,15.55,113.4702,1.2348,1.28084259467,1.80078
2018-09-01T04:47:17Z,12.8972,15.32136,0.0,83.42218,0,1156,1.078,17.46379,2.156,43690,0.0,1028.152,0.0,1.823,1026.351,0,119.371370313,15.49,134.9736,1.2348,1.25486389527,1.80078
2018-09-01T05:02:18Z,12.89842,15.36421,0.0,84.41772,0,1156,1.0192,17.28756,2.6264,43690,0.0,1028.049,0.0,2.195,1026.249,0,118.397253201,15.5,148.1465,1.3916,1.43474318757,1.80078
2018-09-01T05:17:14Z,12.89942,15.53653,0.0,85.06571,0,1156,2.058,17.16105,2.4108,43690,0.0,1028.049,0.0,2.234,1026.249,0,119.851293253,15.57,112.9552,1.176,1.17879999107,1.80078
2018-09-01T05:32:15Z,12.89948,15.23197,0.0,86.08195,0,1156,1.4896,17.11134,2.7048,43690,0.0,1028.049,0.0,2.117,1026.249,0,106.682725723,15.33,89.10464,1.6268,1.66054911006,1.80078
2018-09-01T05:47:15Z,12.89952,15.33356,0.0,86.14968,0,1156,3.332,17.13619,3.7632,43690,0.0,1028.049,0.0,2.744,1026.249,0,103.656816396,15.54,95.59634,1.96,2.0346887574,1.80078
2018-09-01T06:02:16Z,12.89401,15.43515,0.0,84.82898,0,1156,2.7636,17.21075,3.9004,43690,0.0,1028.736,0.0,3.587,1026.935,0,102.036692189,15.47,84.34406,2.2932,2.34863668639,1.80078
2018-09-01T06:17:16Z,12.8935,15.53674,0.0,83.54216,0,1156,2.1756,17.26045,3.3908,43690,0.0,1028.736,0.0,2.607,1026.935,0,100.813289317,15.57,115.6966,1.8228,1.83393372722,1.80078
2018-09-01T06:32:17Z,12.89392,15.36705,0.0,83.88023,0,1156,1.8032,17.2356,3.2732,43690,0.0,1028.736,0.0,2.489,1026.935,0,100.83237923,15.43,115.0707,1.3916,1.50676449349,1.80078
2018-09-01T06:47:18Z,12.89952,14.9272,0.0,84.52422,0,1156,1.7248,17.13619,2.842,43690,0.0,1028.736,0.0,2.391,1026.935,0,105.532737053,15.16,106.3437,1.5092,1.56301301538,1.80078
2018-09-01T07:02:19Z,12.89952,14.85947,0.0,84.65966,0,1156,1.0192,16.88542,2.7832,43690,0.0,1028.33,0.0,1.686,1026.529,0,103.333896618,14.96,93.98543,1.3916,1.38962839586,1.80078
2018-09-01T07:17:21Z,12.91055,14.8256,0.0,85.2015,0,1156,0.9995999,16.6369,2.254,43690,0.0,1028.33,0.0,1.529,1026.529,0,95.2110133186,14.79,117.7403,1.2544,1.2649538355,1.80078
2018-09-01T07:32:16Z,12.91055,14.41924,0.0,86.55605,0,1156,0.9408,16.38838,1.8032,43690,0.0,1028.33,0.0,1.196,1026.529,0,96.1217059835,14.49,86.24349,1.0192,1.03214997679,1.80078
2018-09-01T07:47:18Z,12.91607,14.0806,0.0,87.23332,0,1156,0.9015999,16.11727,1.4896,43690,0.0,1028.33,0.0,1.294,1026.529,0,89.0802261831,14.22,90.81171,0.8624,0.875737256213,1.80078
2018-09-01T08:02:19Z,12.92158,13.64037,0.0,89.67153,0,1156,2.1952,15.84842,2.4892,43690,0.0,1028.736,0.0,2.489,1026.935,0,105.186604526,13.74,109.5655,1.4896,1.50734437041,1.80078
2018-09-01T08:17:20Z,12.92158,14.04673,0.0,88.07993,0,1156,1.5876,15.70157,2.3128,43690,0.0,1028.736,0.0,2.176,1026.935,0,98.5726324531,14.18,85.30579,1.96,1.93239763314,1.80078
2018-09-01T08:32:21Z,12.92158,14.31765,0.0,88.21538,0,1156,1.6268,15.74901,2.4892,43690,0.0,1028.736,0.0,2.47,1026.935,0,99.6801683691,14.39,97.49577,2.0188,1.99351715976,1.80078
2018-09-01T08:47:22Z,12.91607,14.8256,0.0,87.77514,0,1156,1.5288,15.99527,2.5676,43690,0.0,1028.736,0.0,1.98,1026.935,0,106.159213693,14.83,117.043,1.7444,1.71946508876,1.80078
2018-09-01T09:02:22Z,12.91055,14.9272,0.0,87.09787,0,1156,0.5292,16.31608,2.352,43690,0.0,1028.249,0.0,1.274,1026.448,0,95.7356776722,15.06,91.17237,1.2544,1.25706744852,1.80078
2018-09-01T09:17:23Z,12.90504,15.02879,0.0,87.13174,0,1156,0.7056,16.61205,1.764,43690,0.0,1028.249,0.0,1.548,1026.448,0,98.3669692759,15.13,92.37454,0.7644,0.808355016568,1.80078
2018-09-01T09:32:19Z,12.89952,15.16424,0.001927388,87.57196,0,1156,0.9015999,16.81086,2.0188,43690,0.1349172,1028.249,9.636942e-06,2.038,1026.448,0,112.677630251,15.33,111.8497,1.127,1.14671665595,1.80078
2018-09-01T09:47:22Z,12.89401,15.33356,0.005300318,87.80902,0,1156,0.7252,17.01194,3.2536,43690,0.3710222,1028.249,2.650159e-05,2.724,1026.448,0,115.122111365,15.47,84.77684,1.3524,1.40853253787,1.80078
2018-09-01T10:02:23Z,12.88849,15.50213,0.01300987,87.50305,0,1156,0.7056,17.2356,3.0772,43690,0.910691,1029.305,6.504936e-05,2.078,1027.504,0,104.243378432,15.6,79.43814,1.2544,1.35518342426,1.80078
2018-09-01T10:17:24Z,12.88236,15.53635,0.02361051,87.97771,0,1156,0.7644,17.43667,1.6072,43690,1.652736,1029.305,0.0001180525,0.8430001,1027.504,0,83.5887970995,15.57,96.58144,0.588,0.569327801183,1.80078
2018-09-01T10:32:25Z,12.87469,15.52542,0.03806516,88.56981,0,1156,2.3912,17.64,4.0964,43690,2.664562,1029.305,0.0001903258,3.156,1027.504,0,105.530240212,15.63,104.6393,2.1168,2.09174911006,1.80078
2018-09-01T10:47:22Z,12.87352,15.68947,0.07178942,88.83231,0,1156,1.6268,17.79138,3.1752,43690,5.025259,1029.305,0.000358947,2.587,1027.504,0,110.140588511,15.79,84.51121,1.8032,1.81544999702,1.80078
2018-09-01T11:02:23Z,12.8676,15.89039,0.09539618,88.52414,0,1156,2.0188,18.12349,4.1944,43690,6.677732,1028.721,0.0004769809,4.194,1026.921,0,112.78530874,15.96,112.3166,2.5284,2.55147928994,1.80078
2018-09-01T11:17:24Z,12.86208,16.1273,0.1218739,87.91471,0,1156,3.0184,18.48045,4.1552,43690,8.531174,1028.721,0.0006093695,2.509,1026.921,0,111.385371738,16.3,114.3595,2.1364,2.16898934734,1.80078
2018-09-01T11:32:25Z,12.86208,16.36426,0.1652194,87.88085,0,1156,3.2928,18.81707,4.2336,43690,11.56536,1028.721,0.0008260971,3.626,1026.921,0,106.740448981,16.43,99.72209,2.9204,2.87168994024,1.80078
2018-09-01T11:47:21Z,12.86759,17.00746,0.1623277,86.76373,0,1156,3.43,19.3367,4.4492,43690,11.36294,1028.721,0.0008116386,4.057,1026.921,0,108.145009486,17.01,115.2729,2.3814,2.34616666548,1.80078
2018-09-01T12:02:24Z,12.8731,16.87205,0.1989357,85.88356,0,1156,1.5484,19.78403,5.1744,43690,13.9255,1029.37,0.0009946787,3.881,1027.569,0,111.319032889,17.01,135.5586,3.0968,3.08589822485,1.80078
2018-09-01T12:17:25Z,12.86208,17.00746,0.2692617,84.96955,0,1156,3.626,20.07547,4.6256,43690,18.84832,1029.37,0.001346308,4.136,1027.569,0,107.930837213,17.04,121.0894,3.038,3.09923550296,1.80078
2018-09-01T12:32:27Z,12.85017,17.3059,0.3164668,84.08025,0,1156,3.0968,20.52958,5.5468,43690,22.15268,1029.37,0.001582334,4.057,1027.569,0,106.729045157,17.41,114.0347,3.6456,3.59317869822,1.80078
2018-09-01T12:47:22Z,12.83239,18.21593,0.7856276,80.31768,0,1156,3.0968,21.5598,5.7036,43690,54.99393,1029.37,0.003928138,5.292,1027.569,0,103.161755599,18.39,89.10693,4.0572,3.97425,1.80078
2018-09-01T13:02:24Z,12.80818,18.61274,0.8031897,80.1695,0,1156,3.1164,22.95376,6.3308,43690,56.22328,1029.358,0.004015948,5.841,1027.557,0,109.522445887,18.61,98.79969,4.4884,4.35247573964,1.80078
2018-09-01T13:17:26Z,12.78802,18.79876,0.9331903,78.4209,0,1156,5.1548,24.13083,5.7624,43690,65.32332,1029.358,0.004665951,5.566,1027.557,0,109.709885312,19.04,117.7951,4.3512,4.24531360947,1.80078
2018-09-01T13:32:28Z,12.78728,17.91619,0.452098,82.5441,0,1156,2.9988,24.5985,5.5272,43690,31.64686,1029.358,0.00226049,5.41,1027.557,0,109.848123855,18.05,83.97036,4.1552,4.00930177515,1.80078
2018-09-01T13:47:24Z,12.78726,18.55888,0.584963,81.15698,0,1156,2.2932,24.3929,5.4684,43690,40.94741,1029.358,0.002924815,4.704,1027.557,0,109.337190866,18.59,82.74527,3.7044,3.60581666667,1.80078
2018-09-01T14:02:26Z,12.79277,18.76185,0.756845,79.63466,0,1156,3.6456,24.62786,4.8608,43690,52.97915,1029.095,0.003784225,4.861,1027.294,0,105.376226749,19.0,109.2622,3.1164,3.01944378698,1.80078
2018-09-01T14:17:28Z,12.78726,18.931,0.7544134,79.02573,0,1156,4.8608,24.77698,5.39,43690,52.80894,1029.095,0.003772067,4.665,1027.294,0,114.87786686,19.03,121.9682,3.9984,3.81306982249,1.80078
2018-09-01T14:32:24Z,12.77624,19.5061,0.7789131,77.06362,0,1156,2.8616,25.04357,4.9196,43690,54.52392,1029.095,0.003894566,4.096,1027.294,0,113.168699648,19.61,113.9939,3.332,3.19783333333,1.80078
2018-09-01T14:47:27Z,12.77073,19.20164,0.8043648,77.90935,0,1156,2.3912,25.28079,4.5276,43690,56.30554,1029.095,0.004021824,3.959,1027.294,0,105.665213116,19.27,138.3251,3.3908,3.31785088757,1.80078
2018-09-01T15:02:29Z,12.77073,19.33696,0.8245697,77.63872,0,1156,3.2144,25.6129,4.1552,43690,57.71988,1029.176,0.004122848,3.94,1027.375,0,111.940552581,19.57,107.4127,3.3516,3.2498887574,1.80078
2018-09-01T15:17:30Z,12.76486,20.11246,0.8496004,77.0265,0,1156,0.9799999,25.94501,4.1552,43690,59.47203,1029.176,0.004248002,3.469,1027.375,0,108.058297839,20.15,100.8273,3.038,2.92573491065,1.80078
2018-09-01T15:32:26Z,12.75665,20.6408,0.8650039,73.28979,0,1156,1.6856,26.4059,3.43,43690,60.55027,1029.176,0.004325019,2.705,1027.375,0,102.449890724,21.05,104.0235,2.1266,2.02451666429,1.80078
2018-09-01T15:47:28Z,12.74993,21.00793,0.8780006,71.15338,0,1156,3.0576,26.86905,2.9792,43690,61.46004,1029.176,0.004390003,2.783,1027.375,0,99.1603246157,21.41,121.8312,1.9992,1.88241183077,1.80078
2018-09-01T16:02:29Z,12.74439,21.04162,0.8885905,75.34666,0,1156,2.548,27.18308,3.6652,43690,62.20134,1028.511,0.004442952,3.293,1026.71,0,103.305601368,21.04,123.3436,2.5676,2.53095147929,1.80078
2018-09-01T16:17:31Z,12.7499,20.22999,0.9088076,70.13869,0,1156,1.7248,27.27797,3.5476,43690,63.61654,1028.511,0.004544038,2.646,1026.71,0,100.780862037,20.6,125.4326,2.1952,2.23613964497,1.80078
2018-09-01T16:32:27Z,12.7499,22.42817,0.6796803,63.74707,0,1156,1.2544,27.34123,2.6264,43690,47.57762,1028.511,0.003398402,2.176,1026.71,0,101.691241208,22.46,194.3917,1.225,1.22651666071,1.80078
2018-09-01T16:47:28Z,12.73888,20.22999,0.5367164,74.26449,0,1156,1.0584,27.68915,2.5284,43690,37.57014,1028.511,0.002683582,2.528,1026.71,0,197.833049882,20.43,207.1174,1.4896,1.48716449467,1.80078
2018-09-01T17:02:30Z,12.73888,22.4958,0.8592276,52.79001,0,1156,0.9015999,27.84956,1.9208,43690,60.14593,1027.374,0.004296138,1.666,1025.574,0,213.396225438,22.73,227.1905,0.9211999,0.894641410059,1.80078
2018-09-01T17:17:31Z,12.73337,22.29289,0.8432639,68.3125,0,1156,1.7444,28.29915,1.96,43690,59.02847,1027.374,0.00421632,1.744,1025.574,0,213.484524445,22.06,216.0255,1.176,1.19397632426,1.80078
2018-09-01T17:32:28Z,12.7387,22.29056,0.8283186,64.28575,0,1156,0.5488,28.62449,2.0776,43690,57.9823,1027.374,0.004141592,1.509,1025.574,0,207.117341604,22.29,218.2983,1.3524,1.30013332679,1.80078
2018-09-01T17:47:30Z,12.73058,22.65034,0.8085533,49.66722,0,1156,1.4112,29.117,1.9992,43690,56.59873,1027.374,0.004042766,1.666,1025.574,0,218.638123342,23.09,234.7474,1.274,1.25532780651,1.80078
2018-09-01T18:02:32Z,12.72366,23.3877,0.7872653,69.40531,0,1156,1.4112,29.68407,1.7248,43690,55.10857,1026.714,0.003936326,1.607,1024.913,0,229.950247731,23.35,246.6289,1.2348,1.20255857337,1.80078
2018-09-01T18:17:28Z,12.71805,24.7397,0.7622179,52.06221,0,1156,1.4112,30.22403,2.058,43690,53.35526,1026.714,0.00381109,2.058,1024.913,0,244.63192952,24.91,241.7553,1.1564,1.16468332083,1.80078
2018-09-01T18:32:30Z,12.71255,24.02976,0.7343079,53.65113,0,1156,1.2544,30.73914,1.9404,43690,51.40155,1026.714,0.003671539,1.725,1024.913,0,249.833949852,24.03,248.14,1.274,1.27457987515,1.80078
2018-09-01T18:47:32Z,12.70704,23.55647,0.7035112,56.82895,0,1156,1.2152,31.1571,1.8816,43690,49.24578,1026.714,0.003517556,1.588,1024.913,0,251.558448964,23.93,251.0443,1.372,1.37037632781,1.80078
2018-09-01T19:02:33Z,12.70154,23.45505,0.668865,52.40028,0,1156,1.078,31.22714,1.666,43690,46.82055,1026.872,0.003344325,1.274,1025.071,0,246.184401016,23.52,242.7154,1.1172,1.12195502071,1.80078
2018-09-01T19:17:33Z,12.70704,23.38744,0.6284444,52.40028,0,1156,0.9995999,31.26329,1.372,43690,43.9911,1026.872,0.003142222,1.098,1025.071,0,246.193634149,23.62,257.5011,0.9799999,0.980873850955,1.80078
2018-09-01T19:32:29Z,12.70704,23.55647,0.583693,65.31442,0,1156,1.47,31.29718,1.568,43690,40.85851,1026.872,0.002918465,1.509,1025.071,0,250.315333365,23.56,237.3388,1.0976,1.15464998155,1.80078
2018-09-01T19:47:32Z,12.70154,23.86073,0.5418288,62.91414,0,1156,1.2544,31.19325,1.9796,43690,37.92801,1026.872,0.002709144,1.352,1025.071,0,255.262758861,23.86,281.0717,1.2544,1.26564969704,1.80078
2018-09-01T20:02:33Z,12.70704,22.03517,0.498521,65.31442,0,1156,0.9211999,30.94925,1.8424,43690,34.89646,1026.223,0.002492605,1.352,1024.422,0,248.598130077,22.31,257.7171,1.176,1.17089703195,1.80078
2018-09-01T20:17:31Z,12.71255,24.02976,0.4518448,52.73835,0,1156,1.372,30.53355,1.6072,43690,31.62913,1026.223,0.002259224,1.058,1024.422,0,271.519193535,24.2,261.0535,0.9799999,0.957384602959,1.80078
2018-09-01T20:32:32Z,12.71805,22.64369,0.4032438,53.34687,0,1156,1.274,30.15625,1.8228,43690,28.22706,1026.223,0.002016219,1.137,1024.422,0,227.361220172,22.81,240.3871,1.1368,1.11940353846,1.80078
2018-09-01T20:47:33Z,12.71805,21.96756,0.3531992,59.22922,0,1156,0.7252,29.68407,1.4308,43690,24.72394,1026.223,0.001765996,1.058,1024.422,0,249.44031059,22.24,254.3327,0.9995999,1.00551476923,1.80078
2018-09-01T21:02:33Z,12.72424,22.51281,0.3036646,53.65485,0,1156,1.176,29.117,1.4308,43690,21.25652,1026.151,0.001518323,1.431,1024.35,0,265.724919088,22.68,255.0225,0.6664,0.664196443787,1.80078
2018-09-01T21:17:33Z,12.72638,23.09883,0.2565154,52.17658,0,1156,1.2936,28.62449,1.6072,43690,17.95608,1026.151,0.001282577,1.607,1024.35,0,281.171294631,23.3,282.2939,1.078,1.06095146213,1.80078
2018-09-01T21:32:34Z,12.74983,23.07048,0.2074585,54.244,0,1156,1.568,27.81567,1.8424,43690,14.5221,1026.151,0.001037293,1.646,1024.35,0,283.454401011,23.21,278.7408,1.3524,1.30937277456,1.80078
2018-09-01T21:47:34Z,12.7554,21.37976,0.1193771,66.1481,0,1156,1.2348,26.9323,2.1168,43690,8.356398,1026.151,0.0005968856,2.117,1024.35,0,281.640405268,21.62,312.1165,1.47,1.47869822308,1.80078
2018-09-01T22:02:35Z,12.7731,20.70726,0.1174518,64.79951,0,1156,0.7644,25.88627,1.9992,43690,8.221623,1025.929,0.0005872588,1.254,1024.128,0,293.425020115,20.77,289.7569,1.2152,1.26506981243,1.80078
2018-09-01T22:17:36Z,12.78716,19.9115,0.05632196,69.4175,0,1156,1.2544,24.80635,1.764,43690,3.942537,1025.929,0.0002816098,1.764,1024.128,0,283.788500138,20.11,270.0425,1.2544,1.23595975444,1.80078
2018-09-01T22:32:37Z,12.79828,19.26927,0.03177929,70.36534,0,1156,1.0192,23.78291,1.7836,43690,2.22455,1025.929,0.0001588965,1.744,1024.128,0,287.059272953,19.54,296.4898,1.2348,1.21891123314,1.80078
2018-09-01T22:47:38Z,12.81065,18.15733,0.011075,74.12607,0,1156,0.7056,22.89728,1.8228,43690,0.7752498,1025.929,5.537499e-05,1.627,1024.128,0,317.057607248,18.22,298.6022,0.9408,0.907050877515,1.80078
2018-09-01T23:02:38Z,12.82452,17.29204,0.001926088,77.49485,0,1156,0.0,22.05684,1.5288,43690,0.1348262,1025.931,9.630439e-06,0.216,1024.13,0,272.064158193,17.39,198.6775,0.2744,0.34027455503,1.80078
2018-09-01T23:17:34Z,12.84119,16.85277,0.0,79.39084,0,1156,0.0,21.23221,0.4508,43690,0.0,1025.931,0.0,0.314,1024.13,0,236.934525146,16.95,223.3316,0.0,0.0568166666667,1.80078
2018-09-01T23:32:35Z,12.8597,16.21744,0.0,82.71849,0,1156,0.9799999,20.47537,0.9799999,43690,0.0,1025.931,0.0,0.725,1024.13,0,118.838910278,16.22,79.20397,0.0,0.208177511834,1.80078
2018-09-01T23:47:39Z,12.86746,16.02446,0.0,83.13962,0,1156,1.0584,19.83825,1.3916,43690,0.0,1025.931,0.0,1.137,1024.13,0,89.5427025136,16.13,85.44322,0.8526,0.750679981765,1.80078
2018-09-02T00:02:38Z,12.8731,15.48405,0.0,84.08931,0,1156,1.6072,19.31185,2.1168,43690,0.0,1025.713,0.0,1.882,1023.913,0,103.653625943,15.62,120.9691,1.0192,1.00632661302,1.80078
2018-09-02T00:17:36Z,12.88413,15.31481,0.0,83.20918,0,1156,1.4112,18.89389,2.646,43690,0.0,1025.713,0.0,2.47,1023.913,0,108.150895714,15.38,115.7535,1.5092,1.48240946627,1.80078
2018-09-02T00:32:40Z,12.88413,15.55178,0.0,82.1259,0,1156,0.5096,18.55952,2.058,43690,0.0,1025.713,0.0,1.058,1023.913,0,97.5099618295,15.79,89.84358,1.0192,1.05309646235,1.80078
2018-09-02T00:47:40Z,12.88964,15.75489,0.0,80.5687,0,1156,0.0392,18.35393,2.2148,43690,0.0,1025.713,0.0,2.215,1023.913,0,79.0852696365,15.99,229.5121,0.588,0.616066263314,1.80078
2018-09-02T01:02:39Z,12.88964,16.6012,0.0,77.35272,0,1156,1.5876,18.30197,1.862,43690,0.0,1025.795,0.0,1.764,1023.994,0,250.336120084,16.87,244.1976,0.6272,0.613862715976,1.80078
2018-09-02T01:17:38Z,12.88413,16.66891,0.0,80.83951,0,1156,4.1356,18.32682,4.5472,43690,0.0,1025.795,0.0,3.018,1023.994,0,263.776233392,16.77,256.1191,1.6464,1.79937277751,1.80078
2018-09-02T01:32:37Z,12.88413,16.73661,0.0,82.43058,0,1156,1.5092,18.35393,4.6452,43690,0.0,1025.795,0.0,2.156,1023.994,0,259.822935665,16.77,253.9799,1.7248,2.16713372781,1.80078
2018-09-02T01:47:37Z,12.88413,17.34595,0.0,82.7691,0,1156,2.7048,18.45559,3.6848,43690,0.0,1025.795,0.0,3.175,1023.994,0,248.444408223,17.35,241.025,2.7244,2.64472426036,1.80078
2018-09-02T02:02:37Z,12.8731,17.71833,0.0,82.43058,0,1156,2.6264,18.71315,3.6064,43690,0.0,1025.958,0.0,3.391,1024.157,0,243.455743083,17.72,244.3899,2.8224,2.78563550296,1.80078
2018-09-02T02:17:38Z,12.86759,17.17669,0.0,84.80025,0,1156,2.6264,18.921,4.1356,43690,0.0,1025.958,0.0,3.312,1024.157,0,252.150266935,17.24,260.7338,3.0184,3.08937751479,1.80078
2018-09-02T02:32:38Z,12.87861,16.80432,0.0,86.08664,0,1156,2.4892,18.76511,3.1556,43690,0.0,1025.958,0.0,2.803,1024.157,0,243.670949871,16.94,243.8852,2.4696,2.46994792899,1.80078
2018-09-02T02:47:39Z,12.87861,16.6012,0.0,86.49286,0,1156,3.9004,18.48045,3.92,43690,0.0,1025.958,0.0,3.156,1024.157,0,249.528169722,16.67,250.6391,2.9008,2.89372544379,1.80078
2018-09-02T03:02:40Z,12.88413,16.26268,0.0,86.52672,0,1156,0.588,18.2003,3.6652,43690,0.0,1025.633,0.0,1.588,1023.832,0,285.524971808,16.47,282.3896,1.666,1.68745561893,1.80078
2018-09-02T03:17:41Z,12.89515,15.92416,0.0,85.71426,0,1156,0.7448,17.96985,1.6268,43690,0.0,1025.633,0.0,1.098,1023.832,0,315.765601452,15.99,321.5909,0.7056,0.769386973964,1.80078
2018-09-02T03:32:42Z,12.88964,15.21326,0.0,87.33918,0,1156,0.0,17.74167,0.9015999,43690,0.0,1025.633,0.0,0.294,1023.832,0,277.54693723,15.31,236.0257,0.2156,0.230560946154,1.80078
2018-09-02T03:47:38Z,12.89021,15.58779,0.0,87.07174,0,1156,0.1372,17.66486,1.7836,43690,0.0,1025.633,0.0,1.235,1023.832,0,240.265215346,15.55,264.0369,0.4704,0.543783328571,1.80078
2018-09-02T04:02:40Z,12.89703,15.62715,0.0,87.58821,0,1156,0.4704,17.51348,1.4112,43690,0.0,1025.375,0.0,1.0,1023.574,0,228.869956689,15.66,289.7362,0.3332,0.381562123669,1.80078
2018-09-02T04:17:41Z,12.89838,15.59716,0.0,88.54237,0,1156,1.666,17.41182,2.7048,43690,0.0,1025.375,0.0,2.705,1023.574,0,277.468050464,15.83,302.8342,1.274,1.36352795562,1.80078
2018-09-02T04:32:42Z,12.89834,15.06059,0.0,88.9909,0,1156,0.588,17.28756,2.352,43690,0.0,1025.375,0.0,1.137,1023.574,0,294.989608922,15.3,299.3765,0.7056,0.871678098817,1.80078
2018-09-02T04:47:44Z,12.90498,14.89241,0.0,89.67002,0,1156,0.4704,17.11134,1.4504,43690,0.0,1025.375,0.0,1.196,1023.574,0,292.028699541,15.06,268.1269,0.7252,0.709659159172,1.80078
2018-09-02T05:02:45Z,12.91055,14.82558,0.0,90.48423,0,1156,0.294,16.91027,1.9012,43690,0.0,1025.079,0.0,1.901,1023.278,0,263.403292072,14.96,274.3105,0.5684,0.603424846154,1.80078
2018-09-02T05:17:40Z,12.90504,14.4531,0.0,91.43244,0,1156,0.5488,16.76116,1.0584,43690,0.0,1025.079,0.0,1.058,1023.278,0,293.619084721,14.55,304.9658,0.1666,0.286183328571,1.80078
2018-09-02T05:32:42Z,12.91055,14.35151,0.0,92.38063,0,1156,0.5096,16.6369,0.8035999,43690,0.0,1025.079,0.0,0.392,1023.278,0,7.63292984385,14.45,82.42059,0.0,0.167585797633,1.80078
2018-09-02T05:47:42Z,12.91055,14.89333,0.0,92.787,0,1156,3.5868,16.53749,3.822,43690,0.0,1025.079,0.0,3.489,1023.278,0,262.92265671,14.79,233.4849,1.2544,1.38313372367,1.80078
2018-09-02T06:02:43Z,12.91055,15.33356,0.0,91.22926,0,1156,3.234,16.43808,3.9004,43690,0.0,1025.485,0.0,3.9,1023.684,0,248.784559353,15.44,265.9194,3.234,3.24293017751,1.80078
2018-09-02T06:17:44Z,12.91055,15.43515,0.0,90.21335,0,1156,3.3124,16.46293,4.0768,43690,0.0,1025.485,0.0,4.136,1023.684,0,263.689518933,15.57,266.232,3.6064,3.59375857988,1.80078
2018-09-02T06:32:45Z,12.91055,15.57061,0.0,88.62174,0,1156,3.3124,16.53749,4.5276,43690,0.0,1025.485,0.0,4.057,1023.684,0,262.852746115,15.71,255.2923,3.9592,3.93020591716,1.80078
2018-09-02T06:47:47Z,12.91055,15.87538,0.0,87.36878,0,1156,3.724,16.58719,4.1944,43690,0.0,1025.485,0.0,4.155,1023.684,0,252.509026864,15.91,258.0332,3.6848,3.70138461538,1.80078
2018-09-02T07:02:42Z,12.91055,15.50288,0.0,87.09787,0,1156,2.45,16.58719,4.018,43690,0.0,1025.079,0.0,3.136,1023.278,0,253.975751479,15.64,263.8036,3.2438,3.25558333333,1.80078
2018-09-02T07:17:44Z,12.91055,15.19811,0.0,88.2831,0,1156,1.5092,16.46293,2.842,43690,0.0,1025.079,0.0,2.764,1023.278,0,274.421010481,15.23,296.743,2.4108,2.35489940828,1.80078
2018-09-02T07:32:45Z,12.91055,14.62242,0.0,89.1297,0,1156,0.2352,16.33868,2.156,43690,0.0,1025.079,0.0,1.058,1023.278,0,302.234177593,14.72,326.6048,0.8035999,0.843379873373,1.80078